This demonstration page uses our WeatherBlox Daily Observations layout. Learn more.

Left ArrowRight Arrow

39.08367, -84.50855

Hourly Observations for March 30, 2015

Temp ( °F °C ) Dew Point ( °F °C ) Humidity (%) Winds ( mph kmh ) Pressure ( in mb ) Visibility ( mi km ) Precip ( " mm )
12:53 am 00:53 Mostly Cloudy 43 6.1 39 3.9 86 86 SSW 9 15 29.98 1015 10 16.0934 N/A
1:53 am 01:53 Cloudy 46 7.8 41 5 83 83 SW 9 15 29.98 1015 10 16.0934 N/A
2:53 am 02:53 Cloudy 47 8.3 42 5.6 83 83 SW 9 15 29.98 1015 10 16.0934 N/A
3:30 am 03:30 Cloudy 48 9 43 6 82 82 WSW 9 15 29.97 1015 10 16.0934 N/A
3:53 am 03:53 Mostly Cloudy 49 9.4 41 5 74 74 WNW 9 15 29.98 1015 10 16.0934 N/A
4:53 am 04:53 Clear 45 7.2 35 1.7 68 68 NNW 8 13 30 1016 10 16.0934 N/A
5:53 am 05:53 Clear 43 6.1 33 0.6 68 68 W 5 7 30.01 1016 10 16.0934 N/A
6:53 am 06:53 Mostly Clear 40 4.4 33 0.6 77 77 W 6 9 30.04 1017 10 16.0934 N/A
7:53 am 07:53 Sunny 34 1.1 32 undefined 92 92 VRB 5 7 30.08 1019 10 16.0934 N/A
8:53 am 08:53 Sunny 44 6.7 37 2.8 76 76 SSE 3 6 30.09 1019 10 16.0934 N/A
9:53 am 09:53 Sunny 48 8.9 37 2.8 66 66 WSW 9 15 30.11 1020 10 16.0934 N/A
10:53 am 10:53 Sunny 51 10.6 37 2.8 59 59 VRB 5 7 30.12 1020 10 16.0934 N/A
11:53 am 11:53 Partly Cloudy 53 11.7 35 1.7 51 51 WNW 12 19 30.13 1020 10 16.0934 N/A
12:53 pm 12:53 Mostly Sunny 55 12.8 31 -0.6 40 40 W 16 26 30.13 1020 10 16.0934 N/A
1:53 pm 13:53 Mostly Sunny 57 13.9 30 -1.1 36 36 W 9 15 30.12 1020 10 16.0934 N/A
2:53 pm 14:53 Mostly Sunny 58 14.4 30 -1.1 35 35 WNW 13 20 30.09 1019 10 16.0934 N/A
3:53 pm 15:53 Mostly Sunny 57 13.9 27 -2.8 32 32 NNW 9 15 30.07 1018 10 16.0934 N/A
4:53 pm 16:53 Mostly Sunny 60 15.6 29 -1.7 31 31 W 16 26 30.06 1018 10 16.0934 N/A
5:53 pm 17:53 Partly Cloudy 59 15 28 -2.2 31 31 W 13 20 30.06 1018 10 16.0934 N/A
6:53 pm 18:53 Mostly Sunny 57 13.9 29 -1.7 34 34 W 12 19 30.05 1018 10 16.0934 N/A
7:53 pm 19:53 Sunny 57 13.9 28 -2.2 33 33 WNW 7 11 30.06 1018 10 16.0934 N/A
8:53 pm 20:53 Clear 51 10.6 31 -0.6 46 46 N N/A 30.05 1018 10 16.0934 N/A
9:53 pm 21:53 Mostly Clear 47 8.3 33 0.6 59 59 N N/A 30.06 1018 10 16.0934 N/A
10:53 pm 22:53 Mostly Cloudy 47 8.3 36 2.2 66 66 N N/A 30.06 1018 10 16.0934 N/A
11:53 pm 23:53 Cloudy 48 8.9 35 1.7 61 61 N N/A 30.05 1018 10 16.0934 N/A

Powered by AerisWeather